User: anonymous   Login
Location: Unspecified
(0.0000°N, 0.0000°E)
Time: 08:55:55
(UTC+00:00)
Language:

M3MSAT - Orbit

View from above orbital plane
View from above orbital plane
View from above satellite
View from above satellite

Ground track
Ground track

The orbit data is extracted from the following two-line orbital elements,

1 41605U 16040G   19345.67569251 +.00000388 +00000-0 +20420-4 0  9991
2 41605 097.3423 041.9855 0013354 135.6507 224.5801 15.21217609192593
Epoch (UTC): 11 December 2019 16:12:59
Eccentricity: 0.0013354
inclination: 97.3423°
perigee height: 493 km
apogee height: 511 km
right ascension of ascending node: 41.9855°
argument of perigee: 135.6507°
revolutions per day: 15.21217609
mean anomaly at epoch: 224.5801°
orbit number at epoch: 19259

The dashed part of the orbit path shows where the satellite is in the earth's shadow,  

DLR